Location: ????????
(48.4751°N, 37.6926°E)
Time: 03:15:39
(UTC+00:00)

Cosmos 2195 Rocket - Pass Details

Date: 20 January 2021
Orbit: 948 x 994 km, 82.9° (Epoch: 24 February)

Event Time Altitude Azimuth Distance (km) Brightness Sun altitude
Rises 16:27:45 0° 181° (S) 3,687 7.6 -22.6°
Reaches altitude 10° 16:30:15 10° 180° (S) 2,746 6.9 -23.0°
Maximum altitude 16:36:33 77° 96° (E) 1,025 4.4 -24.0°
Drops below altitude 10° 16:42:55 10° 12° (NNE) 2,769 6.7 -25.1°
Sets 16:45:27 0° 11° (N) 3,720 7.4 -25.5°
